Location: Pedholt
(56.0260°N, 10.2097°E)
Time: 00:53:40
(UTC+00:00)

SR - Pass Details

Date: 02 August 2021
Orbit: 581 x 873 km, 66.7° (Epoch: 27 September)

Event Time Altitude Azimuth Distance (km) Brightness Sun altitude
Rises 04:39:44 0° 183° (S) 3,427 ? 8.4°
Reaches altitude 10° 04:42:33 10° 173° (S) 2,470 ? 8.8°
Maximum altitude 04:47:21 29° 115° (ESE) 1,481 ? 9.4°
Drops below altitude 10° 04:51:56 10° 58° (ENE) 2,350 ? 10.1°
Sets 04:54:32 0° 47° (NE) 3,232 ? 10.4°
